CZ-6A DEB

Satellite information

Favourite Embed

Satellite Type and Status

DEBRISIN ORBIT

Key statistics

Satellite CZ-6A DEB at a glance.

Uptime

1129

Days in orbit

Revolutions

≈ 14.2

Per day

Orbit

SSO

Sun Synchronous Orbit

Inclination

98.8

Latest

Satellite identification and parameters

Extended collection of information and parameters for CZ-6A DEB.

Object identification

Identified? True

Debris? True

Object name: CZ-6A DEB

International designator: 2022-151ABR

Object number (NORAD): 56249

Object ID (CCSDS): 56249

Country: PEOPLES REPUBLIC OF CHINA (PRC)

Current information (Y/N): Y

RCS size: SMALL

Orbital parameters

Period: 101.08 minutes

Inclination: 98.7755 deg

SMA: 7187.939 km

Apoapsis: 842.923 km

Periapsis: 776.685 km

RAAN: 359.0875 deg

Eccentricy: 0.00460758

Argument of periapsis: 169.1142 deg

Mean anomaly: 191.1045 deg

Mean motion: 14.24610644 rev/day

Mean motion (dot): 0.00002563 rev/day2

B* drag term: 0.0011099804 1/REarth

Two-line elements (TLE)

Creation date: Dec. 9, 2025, 1:02 p.m.

Reference frame: TEME

Reference center: EARTH

Epoch: Dec. 9, 2025, 12:20 a.m. UTC

TLE line 0: 0 CZ-6A DEB

TLE line 1: 1 56249U 22151ABR 25343.01451449 .00002563 00000-0 11100-2 0 9993

TLE line 2: 2 56249 98.7755 359.0875 0046076 169.1142 191.1045 14.24610644147514

Live tracking on map

Real-time ground track for satellite CZ-6A DEB.

In-orbit conjunctions

A list of the most updated potential collisions computed for object CZ-6A DEB.

Target Orbit TCA Probability of collision Miss distance Type
SL-16 DEB LEO 2025-05-01 10:10:04 0.0001673899 110.0 (m) DEBRIS
METEOR 1-17 DEB LEO 2024-11-14 07:28:17 0.0002347908 817.0 (m) DEBRIS
CZ-6A DEB LEO 2024-10-31 18:31:24 0.0001421224 870.0 (m) DEBRIS

Associated space launch

Chinese satellite reported for atmospheric/ocean/environmental/spatial parameter research purposes, details TBD.

CZ-6A DEB was lifted into orbit during the mission ‘Long March 6A | Yunhai 3’, on board a Long March 6A space rocket.

The launch took place on Nov. 11, 2022, 10:52 p.m. from Launch Complex 9A.

For more information about the launch, click the button.

Launch to space Long March 6A | Yunhai 3
Long March 6A | Yunhai 3

Agency: N/A

Status: Launch Successful

Launch date: Nov. 11, 2022, 10:52 p.m. UTC

Rocket: Long March 6A

Launch pad: Launch Complex 9A

Location: Taiyuan Satellite Launch Center, People's Republic of China

...

Latest news about this satellite

There are no fresh news available about this satellite. Check back as we update our databases every day.


Newsletter sign-up

Weekly statistics, charts and insights to help you stay on top of the space industry.